Starlink 11089

operational
NORAD ID: 59426 Int'l Des: 2024-065 Owner: SPXS Country: US Constellation: starlink
LEOCIRCULAR

About Starlink 11089

Description loading...

Live Position

Loading 3D Globe...

Upcoming Passes

Altitude History

Altitude vs Time

uPlot chart will show altitude changes over time

Two-Line Element Set

1 59426U 24065F 25304.46114943 -.00004125 00000-0 -29233-4 0 9996
2 59426 53.1588 11.1451 0001071 113.1607 246.9524 15.69691412 91229
Epoch: Oct 31, 2025 • Age: 28 hours

Current Status

Altitude 365.7 km
Velocity 7.70 km/s
Sub-Earth Point 53.13°N, 163.66°W
Launch Date Apr 7, 2024
Age 1.5 years
Type internet

Technical Details

Classification Payload
Mass 960.00 kg
Dry Mass 910.00 kg
Total Mass 960.00 kg
Length 0.30 m
Diameter 4.10 m
Span 29.00 m
Shape Box + pan
Manufacturer SPXS
Bus Type Starlink V2MD
Phase Status In Orbit
Owner/State SPXS/US

Large Constellations

Loading constellations...